Location: Anjeux
(47.8815°N, 6.2076°E)
Time: 10:49:03
(UTC+00:00)

AO-27 - Pass Details

Date: 09 December 2021
Orbit: 784 x 798 km, 98.9° (Epoch: 24 January)

Event Time Altitude Azimuth Distance (km) Brightness Sun altitude
Rises 05:43:51 0° 30° (NNE) 3,311 11.0 -14.1°
Reaches altitude 10° 05:47:09 10° 51° (NE) 2,373 10.6 -13.6°
Maximum altitude 05:50:18 16° 89° (E) 1,978 10.8 -13.1°
Drops below altitude 10° 05:53:26 10° 126° (SE) 2,357 11.4 -12.6°
Sets 05:56:41 0° 148° (SSE) 3,277 11.8 -12.1°
